Regional Weather Roundup
Issued by NWS

Home | Current Version | Previous Version | Graphics & Text | Print | Product List | Glossary On
Versions: 1 2 3 4 5 6 7 8 9 10 11 12 13 14 15 16 17 18 19 20 21 22 23 24 25 26 27 28 29 30 31 32 33 34 35 36 37 38 39 40 41 42 43 44 45 46 47 48 49 50
000
ASUS43 KMPX 270001
RWRMN
WEATHER ROUNDUP FOR MINNESOTA
NATIONAL WEATHER SERVICE TWIN CITIES/CHANHASSEN MN
700 PM CDT SUN APR 26 2015


NOTE: "FAIR" INDICATES FEW OR NO CLOUDS BELOW 12,000 FEET WITH NO
SIGNIFICANT WEATHER AND/OR OBSTRUCTIONS TO VISIBILITY. N/A MEANS
CURRENT SKY AND/OR WEATHER CONDITIONS ARE NOT AVAILABLE.

MNZ060>063-068>070-270100-
   Twin Cities Metro

CITY           SKY/WX    TMP DP  RH WIND       PRES   REMARKS
TWIN CITIES    MOSUNNY   62  23  22 N9        30.08S
6HR MIN TEMP:  56; 6HR MAX TEMP:  64;

ST PAUL        SUNNY     62  24  23 N8        30.08S
CRYSTAL        SUNNY     63  22  20 NE7       30.07S
BLAINE         SUNNY     63  21  20 NE7       30.08S
LAKEVILLE      SUNNY     59  25  27 NE7       30.07S
EDEN PRAIRIE   SUNNY     61  23  23 NE7       30.07S
6HR MIN TEMP:  57; 6HR MAX TEMP:  64;

SOUTH ST PAUL  SUNNY     62  23  22 N7        30.07F
LAKE ELMO      FAIR      61  23  23 N6        30.09S
$$
MNZ001>005-007-008-013>017-022>024-027-028-270100-
   Northwest Minnesota

CITY           SKY/WX    TMP DP  RH WIND       PRES   REMARKS
BEMIDJI        MOSUNNY   61  21  21 N5        30.12S
HALLOCK        SUNNY     66  19  16 SW6       30.10S
ROSEAU         SUNNY     63  28  27 E14       30.12S
WARROAD        SUNNY     52  27  37 NE9       30.14F
THIEF RVR FALL SUNNY     64  25  22 SE3       30.12R
CROOKSTON      SUNNY     66  27  22 CALM      30.11S
FOSSTON        SUNNY     66  25  20 NE7       30.12R
DETROIT LAKES  MOSUNNY   63  21  20 E3        30.12R
MOORHEAD       SUNNY     64  21  19 CALM      30.10S
PARK RAPIDS    MOSUNNY   62  14  15 E8        30.11S
MAHNOMEN       FAIR      65  23  20 NE5       30.10R
$$
MNZ006-009>011-018-025>026-270100-
   North Central Minnesota

CITY           SKY/WX    TMP DP  RH WIND       PRES   REMARKS
BAUDETTE       MOSUNNY   62  20  19 NE6       30.14S
FLAG ISLAND    SUNNY     54  27  35 CALM      30.14S
INTL FALLS     SUNNY     58   5  12 CALM      30.15S
6HR MIN TEMP:  54; 6HR MAX TEMP:  60;

WASKISH        SUNNY     57  30  35 CALM      30.13S
BIG FORK       SUNNY     61  12  15 NE3       30.13R
LONGVILLE      SUNNY     59  18  20 NW5       30.12S
GRAND RAPIDS   SUNNY     61  12  15 CALM      30.12S
CRANE LAKE     SUNNY     57  10  15 N3        30.16S
ORR            SUNNY     59   9  13 CALM      30.11S
COOK           SUNNY     59  16  18 N7        30.14R
WALKER         FAIR      58  17  19 CALM      30.12S
$$
MNZ012-019>021-037-270100-
   Northeast Minnesota

CITY           SKY/WX    TMP DP  RH WIND       PRES   REMARKS
DULUTH         SUNNY     50  19  29 E10       30.14S
6HR MIN TEMP:  49; 6HR MAX TEMP:  55;

ELY            SUNNY     57  19  23 NE5       30.13S
HIBBING        SUNNY     60  12  15 N6        30.11F
EVELETH        SUNNY     59  18  20 N7        30.13S
DULUTH HARBOR  SUNNY     39  34  81 NE3       30.17S
TWO HARBORS    SUNNY     52  30  43 CALM      30.13S
SILVER BAY     SUNNY     46  25  42 CALM      30.14S
GRAND MARAIS     N/A     41  31  67 W7        30.17S
G MARAIS ARPRT CLEAR     45  21  39 S5        30.15R
$$
MNZ029>031-032-039>041-046>048-054>057-064-270100-
   West Central Minnesota

CITY           SKY/WX    TMP DP  RH WIND       PRES   REMARKS
FERGUS FALLS   SUNNY     63  12  14 CALM      30.11S
WHEATON        SUNNY     61  27  27 E6        30.11S
MORRIS         SUNNY     63  19  19 E9        30.09S
ALEXANDRIA     MOSUNNY   61  21  21 E9        30.11S
ELBOW LAKE     FAIR      61  23  23 E6        30.10S
WADENA         MOSUNNY   61  25  25 E5        30.11R
GLENWOOD       SUNNY     61  12  15 NE9       30.11S
APPLETON       SUNNY     64  14  14 NE12      30.08S
BENSON         SUNNY     63   9  12 E6        30.10R
ORTONVILLE     SUNNY     63  21  20 E10       30.08S
MADISON        SUNNY     63  19  19 NE9       30.08S
WILLMAR        FAIR      63  18  17 NE9       30.10S
$$
MNZ033>034-036-042>043-049>051-058-059-270100-
   Central Minnesota

CITY           SKY/WX    TMP DP  RH WIND       PRES   REMARKS
ST CLOUD       SUNNY     60  19  20 E8        30.09S
6HR MIN TEMP:  55; 6HR MAX TEMP:  62;

SAUK CENTRE    FAIR      60  16  18 NE8       30.11S
PAYNESVILLE    SUNNY     57  19  22 N6        30.10S
AITKIN         SUNNY     63   1   8 E5        30.10R
PINE RIVER     SUNNY     61  27  27 N6        30.14S
BRAINERD       SUNNY     61  16  17 N5        30.11S
STAPLES        SUNNY     59  12  15 CALM      30.11S
LONG PRAIRIE   FAIR      57  19  23 NE8       30.11S
LITTLE FALLS   SUNNY     59  14  17 NE5       30.11S
LITCHFIELD     SUNNY     61  23  23 NE8       30.10R
BUFFALO        SUNNY     60  23  23 N7        30.10S
MAPLE LAKE     SUNNY     61  27  27 NE10      30.10S
$$
MNZ037-044-045-052-053-270100-
   East Central Minnesota

CITY           SKY/WX    TMP DP  RH WIND       PRES   REMARKS
PRINCETON      SUNNY     63  21  20 NE7       30.10S
MORA           SUNNY     55  18  22 NE7       30.13S
CAMBRIDGE      SUNNY     63  37  39 NE9       30.08S
RUSH CITY      SUNNY     59  21  23 N9        30.11R
MOOSE LAKE     SUNNY     59  19  21 CALM      30.11S
HINCKLEY       FAIR      59  16  18 NE6       30.12S
CLOQUET        SUNNY     52  14  22 E9        30.13S
MCGREGOR       SUNNY     61  19  20 NE3       30.11S
$$
MNZ071>073-080-081-089-090-097-098-270100-
   Southwest Minnesota

CITY           SKY/WX    TMP DP  RH WIND       PRES   REMARKS
MONTEVIDEO     SUNNY     63  19  19 E10       30.09S
GRANITE FALLS  SUNNY     63  22  21 NE8G16    30.09S
CANBY          SUNNY     63  26  24 NE8       30.08S
MARSHALL       SUNNY     63  27  25 NE12      30.06S
REDWOOD FALLS  SUNNY     63  17  17 NE7       30.07R
OLIVIA         SUNNY     59  14  17 NE9       30.07S
PIPESTONE      SUNNY     63  25  23 NE10      30.05S
WORTHINGTON    SUNNY     63  27  25 N12       30.05S
JACKSON        SUNNY     63  21  20 NE12      30.05S
TRACY          SUNNY     64  25  22 NE12      30.06S
SLAYTON        SUNNY     62  22  21 N3G16     30.06S
$$
MNZ065>067-074>077-082>085-091>093-270100-
   South Central Minnesota

CITY           SKY/WX    TMP DP  RH WIND       PRES   REMARKS
MANKATO        SUNNY     61  23  23 NE13      30.07R
NEW ULM        SUNNY     63  18  17 NE10      30.06S
ST JAMES       SUNNY     64  12  13 N8        30.06S
FAIRMONT       SUNNY     64  25  22 NE9       30.04S
GLENCOE        SUNNY     62  25  24 NE3       30.08S
FARIBAULT      SUNNY     61  23  23 N9        30.08S
OWATONNA       SUNNY     59  19  21 NE8       30.07S
WASECA         SUNNY     59  23  25 NE9G16    30.08R
ALBERT LEA     SUNNY     61  23  23 NE9G16    30.06S
$$
MNZ078>079-086>088-094>096-270100-
   Southeast Minnesota

CITY           SKY/WX    TMP DP  RH WIND       PRES   REMARKS
ROCHESTER      SUNNY     57  26  30 N13       30.07S
6HR MIN TEMP:  54; 6HR MAX TEMP:  60;

RED WING       SUNNY     61  18  18 N9        30.06S
STANTON        SUNNY     62  20  20 NE10      30.06S
DODGE CENTER   SUNNY     57  25  28 NE9       30.07S
WINONA         SUNNY     61  27  27 N5        30.06R
AUSTIN         SUNNY     57  27  30 NE8       30.06S
PRESTON        SUNNY     56  24  29 NE10      30.06S
$$
ABBREVIATIONS USED IN REMARKS
   TC - TEMPERATURES IN CELSIUS
  WCI - WIND CHILL INDEX
   HX - HEAT INDEX
  VSB - VISIBILITY
$$


USA.gov is the U.S. government's official web portal to all federal, state and local government web resources and services.